Location: WWIN Observatory
(34.8953°N, 91.9583°W)
Time: 14:46:09
(UTC-06:00)

CAS-4B - Visible Passes

Search period start: 14 December 2019 00:00
Search period end: 24 December 2019 00:00
Orbit: 528 x 546 km, 43.0° (Epoch: 14 December)

Date Brightness Start Highest point End Pass type
(mag) Time Alt. Az. Time Alt. Az. Time Alt. Az.
14 Dec ? 18:46:33 10° SW 18:50:11 47° SSE 18:50:11 47° SSE visible
15 Dec ? 18:36:15 10° SW 18:40:18 63° SSE 18:40:45 57° ESE visible
16 Dec ? 18:26:02 10° WSW 18:30:07 81° SSE 18:31:16 46° ENE visible
17 Dec ? 18:15:52 10° WSW 18:19:57 81° NNW 18:21:43 33° NE visible
17 Dec ? 19:56:52 10° WNW 19:57:05 11° WNW 19:57:05 11° WNW visible
18 Dec ? 18:05:45 10° WSW 18:09:48 65° NNW 18:12:08 24° NE visible
18 Dec ? 19:46:54 10° WNW 19:47:30 13° WNW 19:47:30 13° WNW visible
19 Dec ? 17:55:41 10° W 17:59:41 53° NNW 18:02:31 18° NE visible
19 Dec ? 19:36:54 10° WNW 19:37:52 15° NW 19:37:52 15° NW visible
20 Dec ? 17:45:39 10° W 17:49:34 44° NNW 17:52:52 14° NE visible
20 Dec ? 19:26:54 10° WNW 19:28:14 17° NW 19:28:14 17° NW visible
21 Dec ? 17:35:38 10° W 17:39:28 38° NNW 17:43:13 11° NE visible
21 Dec ? 19:16:52 10° NW 19:18:34 19° NW 19:18:34 19° NW visible
22 Dec ? 17:25:39 10° W 17:29:23 34° NNW 17:33:09 10° NE visible
22 Dec ? 19:06:48 10° NW 19:08:55 22° NNW 19:08:55 22° NNW visible
23 Dec ? 18:56:42 10° NW 18:59:17 24° NNW 18:59:17 24° NNW visible
